Simultaneous Nadir Overpasses (SNOs) Predictions

Prediction of SNOs near US between AQUA and NPP Satellite Orbit:

Table of predicted SNOs near US for the next 10.0 days since TLE Epoch: 7/19/2019
Index Date (AQUA) Time (AQUA) AQUA Lat,Lon Date (NPP) Time (NPP) NPP Lat,Lon Distance(km) Time Diff (sec)
1 07/20/2019 07:18:39 49.93, -75.96 07/20/2019 07:20:29 50.37, -78.20 167.00 110
2 07/20/2019 08:57:32 49.94,-100.68 07/20/2019 09:01:57 50.48,-103.53 211.43 265
3 07/22/2019 18:16:49 49.98, -80.16 07/22/2019 18:10:47 49.69, -81.79 121.95 362
4 07/22/2019 19:55:42 49.98,-104.87 07/22/2019 19:52:15 49.58,-107.12 167.20 207
5 07/22/2019 21:30:53 36.74,-124.98 07/22/2019 21:29:55 36.26,-127.63 242.96 58
6 07/25/2019 09:23:28 23.36,-113.44 07/25/2019 09:16:03 23.43,-113.93 51.09 445
7 07/28/2019 06:30:13 46.32, -65.04 07/28/2019 06:30:49 46.70, -67.08 161.99 36
8 07/28/2019 08:08:06 49.88, -88.35 07/28/2019 08:11:15 50.38, -90.89 189.17 189
9 07/28/2019 09:46:59 49.89,-113.07 07/28/2019 09:52:43 50.49,-116.21 233.60 344




NCC Satellite Simultaneous Nadir Overpasses (SNOs) Prediction Service
